This demonstration page uses our WeatherBlox Daily Observations layout. Learn more.

Left ArrowRight Arrow

41.86663, -103.66717

Hourly Observations for September 27, 2020

Temp ( °F °C ) Dew Point ( °F °C ) Humidity (%) Winds ( mph kmh ) Pressure ( in mb ) Visibility ( mi km ) Precip ( " mm )
12:53 am 00:53 Clear 47 8.3 39 3.9 74 74 N 7 11 29.85 1011 10 16.0934 0 0
1:53 am 01:53 Partly Cloudy 47 8.3 39 3.9 74 74 N 7 11 29.86 1011 10 16.0934 0 0
2:53 am 02:53 Cloudy 45 7.2 40 4.4 83 83 W 5 7 29.87 1011 10 16.0934 0 0
3:53 am 03:53 Mostly Clear 44 6.7 39 3.9 83 83 WNW 3 6 29.91 1013 10 16.0934 0 0
4:53 am 04:53 Mostly Cloudy 48 8.9 39 3.9 71 71 NNW 7 11 29.94 1014 10 16.0934 0 0
5:53 am 05:53 Cloudy 53 11.7 33 0.6 47 47 NNW 14 22 30 1016 10 16.0934 0 0
6:53 am 06:53 Mostly Sunny 47 8.3 37 2.8 69 69 N 18 30 30.07 1018 10 16.0934 0 0
7:53 am 07:53 Cloudy 48 8.9 37 2.8 66 66 NNW 10 17 30.11 1020 10 16.0934 0 0
8:53 am 08:53 Cloudy with Light Rain 46 7.8 42 5.6 86 86 W 9 15 30.13 1020 10 16.0934 0.01 0.254
9:53 am 09:53 Sunny 49 9.4 42 5.6 77 77 WNW 14 22 30.14 1021 10 16.0934 0.001 0.001
10:53 am 10:53 Sunny 54 12.2 41 5 62 62 WNW 16 26 30.13 1020 10 16.0934 0 0
11:53 am 11:53 Partly Cloudy 58 14.4 31 -0.6 36 36 NW 22 35 30.12 1020 10 16.0934 0 0
12:53 pm 12:53 Mostly Sunny 62 16.7 27 -2.8 26 26 NNW 26 43 30.11 1020 10 16.0934 0 0
1:53 pm 13:53 Partly Cloudy 62 16.7 27 -2.8 26 26 NNW 23 37 30.11 1020 10 16.0934 0 0
2:53 pm 14:53 Partly Cloudy 62 16.7 28 -2.2 28 28 NW 26 43 30.11 1020 10 16.0934 0 0
3:53 pm 15:53 Mostly Sunny 63 17.2 27 -2.8 26 26 WNW 17 28 30.12 1020 10 16.0934 0 0
4:53 pm 16:53 Mostly Cloudy 58 14.4 28 -2.2 32 32 NNW 25 41 30.15 1021 10 16.0934 0.001 0.001
5:53 pm 17:53 Sunny 56 13.3 28 -2.2 34 34 NNW 21 33 30.17 1022 10 16.0934 0 0
6:53 pm 18:53 Clear 50 10 30 -1.1 46 46 WNW 10 17 30.22 1023 10 16.0934 0 0
7:53 pm 19:53 Clear 46 7.8 32 0 58 58 WNW 12 19 30.26 1025 10 16.0934 0 0
8:53 pm 20:53 Clear 45 7.2 33 0.6 63 63 WNW 10 17 30.29 1026 10 16.0934 0 0
9:53 pm 21:53 Clear 43 6.1 32 0 65 65 WNW 10 17 30.31 1027 10 16.0934 0 0
10:53 pm 22:53 Clear 42 5.6 32 0 68 68 WNW 12 19 30.32 1027 10 16.0934 0 0
11:53 pm 23:53 Mostly Clear 38 3.3 31 -0.6 76 76 undefined N/A 30.32 1027 10 16.0934 0 0

Powered by AerisWeather